User: anonymous   Login
Location: Bismarck
(46.7731°N, 100.8200°W)
Time: 06:14:57
(UTC-06:00)
Language:

Cosmos 1125 Rocket - Orbit

View from above orbital plane
View from above orbital plane
View from above satellite
View from above satellite

Ground track
Ground track

The orbit data is extracted from the following two-line orbital elements,

1 11511U 79078B   17324.75718669  .00000068  00000-0  31815-4 0  9992
2 11511  74.0385  27.5227 0016664 236.2360 123.7206 14.36793431  1102
Epoch (UTC): 20 November 2017 18:10:20
Eccentricity: 0.0016664
inclination: 74.0385°
perigee height: 757 km
apogee height: 781 km
right ascension of ascending node: 27.5227°
argument of perigee: 236.2360°
revolutions per day: 14.36793431
mean anomaly at epoch: 123.7206°
orbit number at epoch: 110

The dashed part of the orbit path shows where the satellite is in the earth's shadow,  

DLR